Weather History for Millville, NJ

Change the Weather History Date:

Wednesday, September 4, 2013

  Actual Average Record
Temperature  
Mean Temperature 68 °F -  
Max Temperature 81 °F 81 °F 93 °F (1961)
Min Temperature 57 °F 62 °F 50 °F (1997)
Cooling Degree Days 3    
Growing Degree Days 18 (Base 50)    
Moisture  
Dew Point 56 °F    
Average Humidity 72    
Maximum Humidity 96    
Minimum Humidity 39    
Precipitation  
Precipitation 0.00 in - - ()
Sea Level Pressure  
Sea Level Pressure 30.01 in    
Wind  
Wind Speed 4 mph (WNW)    
Max Wind Speed 9 mph    
Max Gust Speed 16 mph    
Visibility 10 miles    
Events      
Averages and records for this station are not official NWS values.
T = Trace of Precipitation, MM = Missing Value Source: NWS Daily Summary

Daily Weather History Graph

Daily Weather History Graph

Search for Another Location

Airport:

Trip Planner

Search our weather history database for the weather conditions in past years. The results will help you decide how hot, cold, wet, or windy it might be!

Date:

Astronomy

Sep. 04, 2013 Rise Set
Actual Time 6:31 AM EDT 7:26 PM EDT
Civil Twilight 6:04 AM EDT 7:53 PM EDT
Nautical Twilight 5:31 AM EDT 8:25 PM EDT
Astronomical Twilight 4:58 AM EDT 8:59 PM EDT
Moon 5:41 AM EDT (9/4) 6:44 PM EDT (9/4)
Length of Visible Light 13h 49m
Length of Day
12h 54m
Waning Crescent, 1% of the Moon is Illuminated
Sep 4
Waning Crescent
Sep 5
New
Sep 12
First Quarter
Sep 19
Full
Sep 26
Last Quarter

Hourly Weather History & Observations

Time (EDT) Temp. Dew Point Humidity Pressure Visibility Wind Dir Wind Speed Gust Speed Precip Events Conditions
12:54 AM 62.1 °F 57.9 °F 86% 29.93 in 10.0 mi West 3.5 mph - N/A   Clear
1:54 AM 59.0 °F 57.0 °F 93% 29.95 in 10.0 mi Calm Calm - N/A   Clear
2:54 AM 59.0 °F 57.0 °F 93% 29.95 in 10.0 mi West 4.6 mph - N/A   Clear
3:54 AM 57.0 °F 55.9 °F 96% 29.96 in 10.0 mi West 3.5 mph - N/A   Clear
4:54 AM 57.0 °F 55.9 °F 96% 29.97 in 10.0 mi WNW 3.5 mph - N/A   Clear
5:54 AM 59.0 °F 57.0 °F 93% 29.99 in 10.0 mi WNW 4.6 mph - N/A   Clear
6:54 AM 57.9 °F 55.9 °F 93% 30.01 in 10.0 mi West 4.6 mph - N/A   Clear
7:54 AM 64.0 °F 57.9 °F 80% 30.04 in 10.0 mi NW 6.9 mph - N/A   Clear
8:54 AM 68.0 °F 59.0 °F 73% 30.05 in 10.0 mi NNW 5.8 mph - N/A   Clear
9:54 AM 71.1 °F 59.0 °F 66% 30.04 in 10.0 mi North 8.1 mph - N/A   Clear
10:54 AM 73.0 °F 59.0 °F 61% 30.04 in 10.0 mi North 6.9 mph - N/A   Clear
11:54 AM 75.9 °F 55.0 °F 48% 30.04 in 10.0 mi West 9.2 mph - N/A   Clear
12:54 PM 78.1 °F 55.0 °F 45% 30.04 in 10.0 mi WNW 8.1 mph - N/A   Clear
1:54 PM 78.1 °F 53.1 °F 42% 30.03 in 10.0 mi SW 9.2 mph - N/A   Clear
2:54 PM 79.0 °F 53.1 °F 40% 30.02 in 10.0 mi WNW 9.2 mph 16.1 mph N/A   Clear
3:54 PM 79.0 °F 52.0 °F 39% 30.01 in 10.0 mi WSW 9.2 mph - N/A   Clear
4:54 PM 79.0 °F 55.0 °F 44% 30.01 in 10.0 mi WSW 9.2 mph - N/A   Clear
5:54 PM 77.0 °F 55.0 °F 47% 30.00 in 10.0 mi WSW 5.8 mph - N/A   Clear
6:54 PM 73.0 °F 55.9 °F 55% 30.00 in 10.0 mi Calm Calm - N/A   Clear
7:54 PM 66.0 °F 59.0 °F 78% 30.01 in 10.0 mi Calm Calm - N/A   Clear
8:54 PM 62.1 °F 59.0 °F 90% 30.02 in 10.0 mi Calm Calm - N/A   Clear
9:54 PM 59.0 °F 57.0 °F 93% 30.02 in 10.0 mi Calm Calm - N/A   Clear
10:54 PM 60.1 °F 57.9 °F 93% 30.02 in 10.0 mi Calm Calm - N/A   Clear
11:54 PM 59.0 °F 57.0 °F 93% 30.02 in 10.0 mi Calm Calm - N/A   Clear